Home   Weather   Ramsey   Past weeks

Flag for Isle of Man Past Weather in Ramsey, Isle of Man — Yesterday and Last 2 Weeks

54 °F

Drizzle. Mostly cloudy.

Feels Like: 52 °F
Forecast: 54 / 57 °F
Wind: 7 mph from Northwest

Location: Isle Of Man / Ronaldsway Airport

Current Time: Oct 28, 2016 at 5:54:06 AM

Latest Report: Oct 28, 2016 at 4:50 AM

Visibility: 5 mi

Pressure: 30.36 "Hg

Humidity: 94%

Dew Point: 52 °F

Location of RamseyLocation

Past Weather in Ramsey — Graph


Ramsey Temperature Yesterday

Maximum temperature yesterday: 59 °F (at 8:50 PM)
Minimum temperature yesterday: 55 °F (at 1:50 AM)
Average temperature yesterday: 57 °F

High & Low Weather Summary for the Past Weeks

High59 °F (Oct 17, 3:50 PM)94% (Oct 15, 9:50 AM)30.36 "Hg (Oct 15, 9:50 AM)
Low43 °F (Oct 24, 5:20 AM)55% (Oct 20, 11:20 AM)29.59 "Hg (Oct 15, 6:50 AM)
Average53 °F79%30.02 "Hg
* Reported Oct 13 4:50 AM — Oct 28 4:50 AM, Ramsey, Weather by CustomWeather, © 2016

Note: Actual official high and low records may vary slightly from our data, if they occured in-between our weather recording intervals... More about our weather records


Ramsey Weather History for the Previous 24 Hours

Scroll right to see more
Time TempWeatherWind HumidityBarometerVisibility
4:50 AM
Fri, Oct 28
54 °FDrizzle. Mostly cloudy.7 mph94%30.36 "Hg5 mi
3:50 AM57 °FMostly cloudy.15 mph88%30.33 "HgN/A
1:50 AM57 °FLow clouds.18 mph88%30.30 "HgN/A
12:50 AM57 °FLow clouds.18 mph88%30.30 "HgN/A
11:50 PM
Thu, Oct 27
57 °FLow clouds.18 mph88%30.30 "HgN/A
10:50 PM57 °FPassing clouds.21 mph88%30.27 "HgN/A
9:50 PM57 °FOvercast.21 mph88%30.27 "HgN/A
8:50 PM59 °FPassing clouds.23 mph77%30.27 "HgN/A
8:20 PM57 °FPassing clouds.22 mph88%30.24 "HgN/A
7:50 PM57 °FPassing clouds.22 mph88%30.24 "HgN/A
7:20 PM57 °FPassing clouds.18 mph88%30.27 "HgN/A
6:50 PM57 °FPassing clouds.13 mph88%30.27 "HgN/A
6:20 PM57 °FPassing clouds.16 mph88%30.27 "HgN/A
5:50 PM57 °FLight rain. Partly sunny.18 mph82%30.27 "HgN/A
5:20 PM57 °FOvercast.21 mph82%30.27 "HgN/A
4:50 PM57 °FOvercast.21 mph82%30.27 "HgN/A
4:20 PM57 °FOvercast.20 mph82%30.24 "HgN/A
3:50 PM57 °FPartly sunny.25 mph82%30.24 "HgN/A
3:20 PM57 °FBroken clouds.20 mph82%30.24 "HgN/A
2:50 PM57 °FPartly sunny.23 mph82%30.24 "HgN/A
2:20 PM57 °FPartly sunny.22 mph82%30.27 "HgN/A
1:50 PM57 °FPartly sunny.21 mph82%30.27 "HgN/A
1:20 PM57 °FPartly sunny.18 mph82%30.27 "HgN/A
12:50 PM57 °FPartly sunny.18 mph82%30.27 "HgN/A
12:20 PM57 °FPartly sunny.23 mph82%30.27 "HgN/A
11:50 AM57 °FBroken clouds.22 mph82%30.27 "HgN/A
11:20 AM57 °FBroken clouds.23 mph82%30.27 "HgN/A
10:50 AM57 °FBroken clouds.22 mph82%30.27 "HgN/A
10:20 AM57 °FDrizzle. Partly sunny.21 mph82%30.30 "HgN/A
9:50 AM57 °FBroken clouds.22 mph77%30.27 "HgN/A
9:20 AM57 °FPartly sunny.20 mph77%30.27 "HgN/A
8:50 AM55 °FBroken clouds.21 mph88%30.30 "HgN/A
8:20 AM55 °FBroken clouds.20 mph82%30.27 "HgN/A
7:50 AM55 °FPassing clouds.18 mph82%30.27 "HgN/A
7:20 AM57 °FPassing clouds.17 mph77%30.27 "HgN/A
6:50 AM57 °FOvercast.18 mph77%30.27 "HgN/A
6:20 AM57 °FOvercast.16 mph77%30.30 "HgN/A
5:50 AM57 °FOvercast.16 mph77%30.27 "HgN/A
5:20 AM57 °FOvercast.15 mph82%30.27 "HgN/A
Weather by CustomWeather, © 2016

See weather overviewHow to use our weather pages